Location: Wien
(48.2082°N, 16.3738°E)
Time: 23:56:53
(UTC+02:00)

DOVE 4 - Pass Details

Date: 30 March 2019
Orbit: 587 x 804 km, 97.7° (Epoch: 25 April)

Event Time Altitude Azimuth Distance (km) Brightness Sun altitude
Rises 02:45:53 0° 19° (NNE) 2,890 ? -26.7°
Reaches altitude 10° 02:48:12 10° 26° (NNE) 1,959 ? -26.5°
Maximum altitude 02:52:12 41° 98° (E) 863 ? -25.9°
Enters shadow 02:52:41 40° 117° (ESE) 886 ? -25.9°
